FW3855 Weather Reports


time (UTC)temp
C
wind
direction
speed
KPH
gust
KPH
rain 1hr
cm
rain 24hr
cm
rain mn
cm
humidity
%
barometer
mb
20260903190358 28 211 12.9 30.6 0.00 0.00 0.00 4 1017.3
20260903185853 28 157 12.9 37.0 0.00 0.00 0.00 6 1017.5
20260903185347 28 132 11.3 37.0 0.00 0.00 0.00 6 1017.5
20260903184841 28 98 9.7 22.5 0.00 0.00 0.00 5 1017.6
20260903184335 28 150 9.7 35.4 0.00 0.00 0.00 5 1017.5
20260903183829 27 193 9.7 35.4 0.00 0.00 0.00 8 1017.6
20260903183323 27 166 8.0 27.4 0.00 0.00 0.00 7 1017.6
20260903182817 27 107 9.7 25.7 0.00 0.00 0.00 8 1017.6
20260903182311 27 153 9.7 30.6 0.00 0.00 0.00 9 1017.8
20260903181808 27 154 8.0 30.6 0.00 0.00 0.00 10 1017.7
20260903181259 27 89 9.7 27.4 0.00 0.00 0.00 10 1017.8
20260903180753 27 129 9.7 27.4 0.00 0.00 0.00 9 1017.7
20260903175741 27 252 9.7 25.7 0.00 0.00 0.00 10 1017.8
20260903174730 27 200 9.7 24.1 0.00 0.00 0.00 10 1017.8
20260903174223 26 209 11.3 24.1 0.00 0.00 0.00 10 1017.8
20260903173717 26 96 9.7 22.5 0.00 0.00 0.00 10 1017.8
20260903173211 26 82 8.0 22.5 0.00 0.00 0.00 9 1017.8
20260903172705 26 208 11.3 29.0 0.00 0.00 0.00 10 1018.0
20260903172159 26 53 11.3 29.0 0.00 0.00 0.00 9 1018.0
20260903171653 26 145 11.3 27.4 0.00 0.00 0.00 9 1018.0
20260903170641 26 114 8.0 27.4 0.00 0.00 0.00 9 1017.8
20260903170135 26 169 9.7 22.5 0.00 0.00 0.00 9 1017.8
20260903165629 26 165 11.3 24.1 0.00 0.00 0.00 9 1017.8
20260903165123 26 122 9.7 27.4 0.00 0.00 0.00 10 1017.8
20260903164111 26 101 9.7 27.4 0.00 0.00 0.00 10 1017.8
20260903163605 25 258 11.3 24.1 0.00 0.00 0.00 10 1017.8
20260903162553 25 148 11.3 27.4 0.00 0.00 0.00 10 1017.8
20260903161541 25 160 11.3 32.2 0.00 0.00 0.00 10 1018.0
20260903161035 25 120 8.0 32.2 0.00 0.00 0.00 10 1017.8
20260903160528 25 178 6.4 19.3 0.00 0.00 0.00 10 1018.0
20260903160023 25 203 8.0 29.0 0.00 0.00 0.00 10 1017.8
20260903155517 25 353 9.7 29.0 0.00 0.00 0.00 10 1017.8
20260903155011 24 119 8.0 20.9 0.00 0.00 0.00 12 1017.7
20260903154508 24 87 9.7 29.0 0.00 0.00 0.00 12 1017.7
20260903153508 23 145 8.0 27.4 0.00 0.00 0.00 12 1017.7
20260903153008 23 251 6.4 22.5 0.00 0.00 0.00 13 1017.7
20260903152508 23 323 4.8 25.7 0.00 0.00 0.00 13 1017.7
20260903152010 23 47 6.4 25.7 0.00 0.00 0.00 13 1017.8
20260903151506 23 95 4.8 20.9 0.00 0.00 0.00 12 1017.7
20260903151007 23 294 3.2 20.9 0.00 0.00 0.00 12 1017.8
20260903150507 23 130 3.2 12.9 0.00 0.00 0.00 11 1018.0
20260903150008 22 349 3.2 12.9 0.00 0.00 0.00 11 1017.8
20260903144505 22 225 6.4 20.9 0.00 0.00 0.00 10 1018.0
20260903144002 22 120 6.4 19.3 0.00 0.00 0.00 11 1017.8
20260903143502 22 0.0 0.0 0.00 0.00 0.00 11 1017.7
20260903143005 22 0.0 0.0 0.00 0.00 0.00 10 1017.5